Home   Weather   Waidhofen an der Thaya   Past weeks

Flag for Austria Past Weather in Waidhofen an der Thaya, Lower Austria, Austria — Yesterday and Last 2 Weeks

Now
20 °F

Cold.


Feels Like: 20 °F
Forecast: 4 / 19 °F
Wind: 1 mph from Northeast

Location: Retz

Current Time: Jan 18, 2017 at 9:42:08 pm

Latest Report: Jan 18, 2017 at 8:00 pm


Visibility: N/A

Pressure: 30.70 "Hg (28.77 "Hg at 506m altitude)

Humidity: 85%

Dew Point: 16 °F

Location of Waidhofen an der ThayaLocation

Past Weather in Waidhofen an der Thaya — Graph

°F

Waidhofen an der Thaya Temperature Yesterday

Maximum temperature yesterday: 29 °F (at 3:00 pm)
Minimum temperature yesterday: 24 °F (at 8:00 am)
Average temperature yesterday: 26 °F

High & Low Weather Summary for the Past Weeks

 TemperatureHumidityPressure
High42 °F (Jan 12, 2:00 pm)98% (Jan 12, 11:00 pm)30.70 "Hg (Jan 12, 11:00 pm)
Low9 °F (Jan 11, 2:00 am)53% (Jan 7, 1:00 pm)29.44 "Hg (Jan 13, 6:00 am)
Average25 °F77%30.16 "Hg
* Reported Jan 3 8:00 pm — Jan 18 8:00 pm, Waidhofen an der Thaya, Weather by CustomWeather, © 2017

Note: Actual official high and low records may vary slightly from our data, if they occured in-between our weather recording intervals... More about our weather records

Advertising

Waidhofen an der Thaya Weather History for the Previous 24 Hours

Scroll right to see more
 ConditionsComfort  
Time TempWeatherWind HumidityBarometerVisibility
8:00 pm
Wed, Jan 18
20 °FCold.1 mph85%30.70 "HgN/A
7:00 pm21 °FPassing clouds.2 mph81%30.68 "Hg5 mi
6:00 pm22 °FCold.2 mph80%30.66 "HgN/A
5:00 pm24 °FCold.2 mph79%30.66 "HgN/A
4:00 pm27 °FChilly.3 mph72%30.64 "HgN/A
3:00 pm28 °FChilly.3 mph70%30.63 "HgN/A
2:00 pm30 °FChilly.5 mph67%30.63 "HgN/A
1:00 pm29 °FPassing clouds.5 mph69%30.63 "Hg7 mi
12:00 pm29 °FChilly.5 mph68%30.64 "HgN/A
11:00 am26 °FChilly.3 mph71%30.65 "HgN/A
10:00 am24 °FCold.3 mph74%30.65 "HgN/A
9:00 am23 °FCold.2 mph76%30.64 "HgN/A
8:00 am24 °FCold.3 mph75%30.62 "HgN/A
7:00 am25 °FPassing clouds.3 mph75%30.61 "Hg6 mi
6:00 am24 °FCold.3 mph76%30.60 "HgN/A
5:00 am26 °FChilly.3 mph72%30.60 "HgN/A
4:00 am26 °FChilly.5 mph71%30.60 "HgN/A
3:00 am26 °FChilly.5 mph71%30.60 "HgN/A
2:00 am26 °FChilly.5 mph70%30.60 "HgN/A
1:00 am25 °FChilly.6 mph71%30.59 "HgN/A
12:00 am25 °FChilly.6 mph72%30.59 "HgN/A
11:00 pm
Tue, Jan 17
25 °FChilly.5 mph72%30.58 "HgN/A
10:00 pm26 °FChilly.5 mph72%30.58 "HgN/A
9:00 pm26 °FChilly.5 mph71%30.58 "HgN/A
Weather by CustomWeather, © 2017

See weather overviewHow to use our weather pages